FW7889 Weather Reports


Display with metric or nautical units.
time (UTC)temp
F
wind
direction
speed
MPH
gust
MPH
rain 1hr
in
rain 24hr
in
rain mn
in
humidity
%
barometer
mb
20260507145521 42 314 5.0 6.0 0.00 0.03 0.03 69 1065.2
20260507144516 42 250 6.0 8.0 0.00 0.03 0.03 70 1064.9
20260507143511 42 303 5.0 6.0 0.00 0.03 0.03 71 1065.1
20260507142509 42 348 3.0 5.0 0.00 0.03 0.03 69 1065.2
20260507141508 43 265 6.0 7.0 0.00 0.03 0.03 69 1064.8
20260507140508 43 285 6.0 10.0 0.00 0.03 0.03 69 1064.8
20260507135508 43 254 9.0 9.0 0.00 0.03 0.03 69 1064.8
20260507134508 42 321 3.0 3.0 0.00 0.03 0.03 71 1064.9
20260507133505 42 329 5.0 8.0 0.00 0.03 0.03 70 1064.7
20260507132500 42 272 2.0 2.0 0.00 0.03 0.03 72 1064.6
20260507131459 42 7 5.0 6.0 0.00 0.03 0.03 72 1064.7
20260507130458 41 319 5.0 7.0 0.00 0.03 0.03 76 1064.8
20260507125455 40 348 5.0 6.0 0.00 0.03 0.03 77 1064.5
20260507124454 39 267 3.0 3.0 0.00 0.03 0.03 80 1064.8
20260507123455 39 283 1.0 1.0 0.00 0.03 0.03 83 1064.5
20260507122452 38 285 0.0 1.0 0.00 0.03 0.03 82 1064.5
20260507121450 38 259 3.0 3.0 0.00 0.03 0.03 82 1064.8
20260507120449 38 284 1.0 1.0 0.00 0.03 0.03 83 1064.7
20260507115448 38 266 0.0 0.0 0.00 0.03 0.03 84 1064.6
20260507114445 37 315 2.0 2.0 0.00 0.03 0.03 85 1064.9
20260507113445 36 269 0.0 0.0 0.00 0.03 0.03 86 1065.1
20260507112440 36 296 1.0 1.0 0.00 0.03 0.03 89 1065.0
20260507111440 35 294 1.0 1.0 0.00 0.03 0.03 94 1064.9
20260507110438 34 278 0.0 0.0 0.00 0.03 0.03 98 1065.2
20260507105438 33 285 0.0 0.0 0.00 0.03 0.03 99 1065.0
20260507104437 33 272 0.0 0.0 0.00 0.03 0.03 99 1064.8
20260507103435 32 266 0.0 0.0 0.00 0.03 0.03 99 1064.8
20260507102434 32 279 1.0 1.0 0.00 0.03 0.03 99 1064.8
20260507101431 31 276 0.0 0.0 0.00 0.03 0.03 99 1064.7
20260507100431 31 276 0.0 1.0 0.00 0.03 0.03 99 1064.7
20260507095427 31 275 0.0 0.0 0.00 0.03 0.03 99 1064.8
20260507094426 32 269 0.0 0.0 0.00 0.03 0.03 99 1064.7
20260507093421 32 261 0.0 1.0 0.00 0.03 0.03 99 1064.8
20260507092420 32 266 0.0 0.0 0.00 0.03 0.03 99 1064.6
20260507091420 33 264 0.0 1.0 0.00 0.03 0.03 99 1064.8
20260507090418 33 269 0.0 0.0 0.00 0.03 0.03 99 1064.3
20260507085418 33 269 1.0 1.0 0.00 0.03 0.03 99 1064.7
20260507084417 33 244 3.0 3.0 0.00 0.03 0.03 99 1064.7
20260507083417 34 261 1.0 1.0 0.00 0.03 0.03 99 1064.6
20260507082415 34 277 0.0 1.0 0.00 0.03 0.03 99 1064.8
20260507081414 35 274 0.0 0.0 0.00 0.03 0.03 99 1064.7
20260507080413 35 266 0.0 0.0 0.00 0.03 0.03 98 1064.3
20260507075410 35 249 2.0 2.0 0.00 0.03 0.03 98 1064.2
20260507074410 36 269 0.0 1.0 0.00 0.03 0.03 98 1064.4
20260507073410 36 241 2.0 2.0 0.00 0.03 0.03 99 1064.3
20260507072404 37 267 1.0 1.0 0.00 0.03 0.03 99 1064.2
20260507071404 37 263 3.0 3.0 0.00 0.03 0.03 99 1063.9
20260507070404 38 268 1.0 1.0 0.00 0.03 0.03 99 1064.1
20260507065403 38 254 2.0 2.0 0.00 0.03 0.03 99 1064.2
20260507064359 38 269 1.0 1.0 0.00 0.03 0.03 99 1064.3
20260507063359 38 273 1.0 1.0 0.00 0.03 0.03 99 1064.2
20260507062358 38 269 1.0 1.0 0.00 0.03 0.03 99 1064.3
20260507061354 38 270 0.0 0.0 0.00 0.03 0.03 99 1064.2
20260507060355 38 273 0.0 0.0 0.00 0.03 0.03 99 1064.2
20260507055352 39 295 2.0 2.0 0.00 0.03 0.03 99 1064.3
20260507054351 39 320 3.0 3.0 0.07 0.03 0.03 99 1064.3
20260507053347 40 312 1.0 1.0 0.00 0.02 0.02 99 1064.2
20260507052341 40 303 1.0 2.0 0.05 0.02 0.02 99 1064.1
20260507051337 40 265 1.0 2.0 0.00 0.01 0.01 99 1064.2
20260507050335 40 285 0.0 1.0 0.00 0.01 0.01 99 1063.9
20260507045335 41 267 1.0 2.0 0.07 0.01 0.01 99 1063.9
20260507044335 41 265 2.0 2.0 0.00 0.00 0.00 99 1063.9
20260507043333 41 273 1.0 1.0 0.00 0.00 0.00 99 1063.9
20260507042331 41 288 1.0 1.0 0.00 0.00 0.00 99 1063.7
20260507041331 41 264 0.0 1.0 0.00 0.00 0.00 99 1063.7
20260507040330 41 263 1.0 1.0 0.00 0.00 0.00 99 1063.9
20260507035327 41 267 1.0 1.0 0.00 0.81 0.81 99 1063.6
20260507034322 41 258 1.0 1.0 0.00 0.81 0.81 99 1064.2
20260507033318 41 266 0.0 0.0 0.00 0.81 0.81 99 1063.8
20260507032316 41 263 1.0 1.0 0.00 0.81 0.81 99 1064.1
20260507031316 41 267 1.0 1.0 0.00 0.81 0.81 99 1063.8
20260507030316 41 274 1.0 1.0 0.00 0.81 0.81 99 1063.9
20260507025315 41 269 0.0 0.0 0.00 0.81 0.81 99 1064.2
20260507024315 41 270 0.0 0.0 0.00 0.81 0.81 99 1064.2
20260507023312 41 270 0.0 1.0 0.00 0.81 0.81 99 1064.2
20260507022312 40 277 0.0 0.0 0.00 0.81 0.81 99 1064.2
20260507021310 40 274 0.0 1.0 0.00 0.81 0.81 99 1064.6
20260507020310 40 289 0.0 0.0 0.00 0.81 0.81 99 1064.3
20260507015310 40 275 0.0 0.0 0.00 0.81 0.81 99 1064.6
20260507014309 40 272 0.0 0.0 0.00 0.81 0.81 99 1064.5
20260507013309 41 268 0.0 0.0 0.00 0.81 0.81 99 1064.1
20260507012308 41 265 0.0 0.0 0.00 0.81 0.81 99 1064.5
20260507011308 41 270 0.0 0.0 0.00 0.81 0.81 99 1064.2
20260507010303 41 270 0.0 0.0 0.00 0.81 0.81 99 1064.2
20260507005305 41 269 0.0 0.0 0.00 0.81 0.81 99 1064.2
20260507004303 42 278 0.0 0.0 0.00 0.81 0.81 99 1063.7
20260507003301 42 284 0.0 0.0 0.00 0.81 0.81 99 1063.6
20260507002259 42 299 0.0 1.0 0.00 0.81 0.81 99 1063.4
20260507001254 42 339 2.0 2.0 0.00 0.81 0.81 99 1063.2
20260507000251 42 305 0.0 1.0 0.00 0.81 0.81 99 1063.3
20260506235249 42 305 1.0 1.0 0.00 0.81 0.81 99 1063.6
20260506234244 42 295 0.0 0.0 0.00 0.81 0.81 99 1063.5
20260506233244 42 350 2.0 3.0 0.00 0.81 0.81 99 1063.8
20260506232241 42 306 1.0 1.0 0.00 0.81 0.81 99 1063.6
20260506231237 42 323 3.0 3.0 0.00 0.81 0.81 99 1063.8
20260506230236 42 309 2.0 2.0 0.00 0.81 0.81 99 1063.5
20260506225236 42 357 3.0 5.0 0.00 0.81 0.81 99 1063.8
20260506224236 43 318 1.0 1.0 0.00 0.81 0.81 99 1063.5
20260506223233 43 307 1.0 1.0 0.00 0.81 0.81 99 1063.2
20260506222232 43 334 3.0 5.0 0.00 0.81 0.81 99 1062.9
20260506221228 43 311 3.0 3.0 0.00 0.81 0.81 99 1062.9
20260506220225 43 326 3.0 3.0 0.00 0.81 0.81 99 1062.9
20260506215224 43 304 2.0 2.0 0.00 0.81 0.81 99 1062.7
20260506214224 43 304 1.0 1.0 0.00 0.81 0.81 99 1062.7
20260506213219 44 300 1.0 1.0 0.00 0.81 0.81 99 1062.5
20260506212217 44 309 1.0 1.0 0.00 0.81 0.81 99 1062.0
20260506211215 44 301 2.0 3.0 0.00 0.81 0.81 99 1062.1
20260506210215 44 321 2.0 2.0 0.00 0.81 0.81 99 1062.3
20260506205213 44 316 1.0 1.0 0.07 0.81 0.81 99 1062.2
20260506204208 44 312 1.0 2.0 0.00 0.80 0.80 99 1062.2
20260506203203 44 339 2.0 2.0 0.00 0.80 0.80 99 1062.1
20260506202202 44 326 1.0 2.0 0.00 0.80 0.80 99 1061.9
20260506201202 45 332 3.0 5.0 0.00 0.80 0.80 99 1061.6
20260506200202 44 338 3.0 3.0 0.00 0.80 0.80 99 1061.9
20260506195200 45 317 2.0 2.0 0.05 0.80 0.80 99 1061.9
20260506194200 45 358 5.0 6.0 0.00 0.79 0.79 99 1061.9
20260506193200 45 308 1.0 1.0 0.07 0.79 0.79 99 1061.6
20260506192200 45 318 2.0 2.0 0.00 0.78 0.78 99 1061.8
20260506191158 45 317 3.0 3.0 0.00 0.78 0.78 99 1061.8
20260506190158 45 296 0.0 0.0 0.00 0.78 0.78 99 1061.5
20260506185157 45 338 2.0 2.0 0.05 0.78 0.78 99 1061.3
20260506184152 45 309 0.0 1.0 0.00 0.77 0.77 99 1061.1
20260506183151 45 306 1.0 2.0 0.00 0.77 0.77 99 1061.5
20260506182151 44 252 0.0 0.0 0.00 0.77 0.77 99 1061.4
20260506181146 44 78 3.0 5.0 0.00 0.77 0.77 99 1060.9
20260506180145 44 307 0.0 0.0 0.00 0.77 0.77 99 1061.1
20260506175144 44 286 0.0 0.0 0.00 0.77 0.77 99 1061.2
20260506174139 44 300 0.0 1.0 0.00 0.77 0.77 99 1061.1
20260506173139 44 55 1.0 1.0 0.00 0.77 0.77 99 1061.4
20260506172138 44 297 0.0 1.0 0.00 0.77 0.77 99 1061.3
20260506171134 44 2 1.0 1.0 0.07 0.77 0.77 99 1061.1
20260506170128 43 90 3.0 3.0 0.00 0.76 0.76 99 1061.1
20260506165127 43 303 0.0 1.0 0.05 0.76 0.76 99 1061.2
20260506164127 43 310 0.0 1.0 0.07 0.75 0.75 99 1061.6
20260506163123 42 315 1.0 2.0 0.05 0.74 0.74 99 1061.5
20260506162123 42 314 1.0 1.0 0.07 0.73 0.73 99 1061.8
20260506161121 42 78 0.0 0.0 0.05 0.72 0.72 99 1061.9
20260506160120 42 78 4.0 5.0 0.00 0.71 0.71 99 1061.5
20260506155116 42 59 1.0 2.0 0.05 0.70 0.70 99 1061.6
20260506152924 42 288 0.0 0.0 0.07 0.69 0.69 99 1061.6
20260506151920 42 357 1.0 1.0 0.07 0.68 0.68 99 1061.2
20260506150920 42 311 0.0 1.0 0.05 0.67 0.67 99 1061.5